Location: Oshawa
(43.9000°N, 78.8670°W)
Time: 13:44:21
(UTC-04:00)

PAYLOAD A - Visible Passes

Search period start: 18 September 2014 00:00
Search period end: 28 September 2014 00:00
Orbit: 693 x 832 km, 98.2° (Epoch: 17 September)

Date Brightness Start Highest point End Pass type
(mag) Time Alt. Az. Time Alt. Az. Time Alt. Az.
18 Sep 4.7 20:13:36 10° S 20:18:49 62° W 20:24:12 10° NNW visible
19 Sep 6.8 21:17:11 10° SW 21:20:46 18° W 21:24:24 10° NW visible
20 Sep 5.6 20:38:00 10° SSW 20:42:55 38° W 20:47:58 10° NNW visible
21 Sep 4.3 19:59:59 10° S 20:05:19 81° WSW 20:10:47 10° NNW visible
21 Sep 7.2 21:44:03 10° W 21:45:06 11° W 21:46:10 10° WNW visible
22 Sep 6.4 21:02:53 10° SW 21:07:07 24° W 21:11:26 10° NW visible
23 Sep 5.1 20:24:12 10° S 20:29:22 50° W 20:34:39 10° NNW visible
24 Sep 4.1 19:46:29 10° SSE 19:51:51 79° ENE 19:57:18 10° N visible
24 Sep 7.0 21:28:32 10° WSW 21:31:24 15° W 21:34:18 10° NW visible
25 Sep 6.0 20:48:48 10° SSW 20:53:31 31° W 20:58:18 10° NNW visible
26 Sep 4.6 20:10:30 10° S 20:15:51 65° WSW 20:21:16 10° NNW visible
27 Sep 4.2 19:33:06 10° SSE 19:38:24 61° ENE 19:43:46 10° N visible
27 Sep 6.7 21:13:58 10° SW 21:17:44 19° W 21:21:33 10° NW visible
